Location: ??? ?????
(30.6482°N, 60.5850°E)
Time: 04:15:36
(UTC+00:00)

IRIDIUM 104 - Pass Details

Date: 09 April 2020
Orbit: 776 x 779 km, 86.4° (Epoch: 05 June)

Event Time Altitude Azimuth Distance (km) Brightness Sun altitude
Rises 15:21:52 0° 357° (N) 3,265 7.8 -13.4°
Reaches altitude 10° 15:24:13 10° 357° (N) 2,333 7.1 -13.8°
Maximum altitude 15:29:27 84° 269° (W) 787 4.4 -14.9°
Drops below altitude 10° 15:34:39 10° 182° (S) 2,319 6.6 -16.0°
Sets 15:36:59 0° 182° (S) 3,242 7.4 -16.4°
